FORMOSAT-5
Last updated on Sun Jun 21 2026 00:02:52 GMT+0000 (Coordinated Universal Time)
1 42920U 17049A 26171.43210432 .00000097 00000+0 35731-4 0 9992
2 42920 98.2254 246.6698 0012638 75.3872 284.8723 14.50899817467140
Next 0 passes for location: London (51.5072 / 0.1276)
No passes found over London.